This is the latest recevied weather packets stored in our database for station/object N3SBK. If no packets are shown the sender has not sent any weather packets the latest 10 day(s).
| Time | Temp. | Humidity | Pressure | Rain* | Wind** | Luminosity | Snow |
|---|---|---|---|---|---|---|---|
| 1787701946 | 19.44° C | 83% | 1010 hPa | 0 mm | - | 2 W/m² | - |
| 1787701643 | 20° C | 83% | 1010.4 hPa | 0 mm | - | 4 W/m² | - |
| 1787701338 | 20° C | 82% | 1010.3 hPa | 0 mm | - | 6 W/m² | - |
| 1787701034 | 20.56° C | 81% | 1010.4 hPa | 0 mm | - | 7 W/m² | - |
| 1787700729 | 20.56° C | 79% | 1010.5 hPa | 0 mm | - | 9 W/m² | - |
| 1787700425 | 21.11° C | 77% | 1010.6 hPa | 0 mm | - | 12 W/m² | - |
| 1787700121 | 21.11° C | 77% | 1010.6 hPa | 0 mm | - | 13 W/m² | - |
| 1787699817 | 21.67° C | 75% | 1010.5 hPa | 0 mm | - | 14 W/m² | - |
| 1787699516 | 21.67° C | 74% | 1010.4 hPa | 0 mm | - | 21 W/m² | - |
| 1787699212 | 21.67° C | 73% | 1010.6 hPa | 0 mm | - | 25 W/m² | - |
| 1787698909 | 22.78° C | 71% | 1010.4 hPa | 0 mm | - | 28 W/m² | - |
| 1787698609 | 22.78° C | 71% | 1010.8 hPa | 0 mm | - | 28 W/m² | - |
| 1787698305 | 22.78° C | 71% | 1010.4 hPa | 0 mm | - | 28 W/m² | - |
| 1787698001 | 22.78° C | 70% | 1010.5 hPa | 0 mm | - | 40 W/m² | - |
| 1787697700 | 22.78° C | 69% | 1010.5 hPa | 0 mm | - | 61 W/m² | - |
| 1787697396 | 22.78° C | 72% | 1010.4 hPa | 0 mm | - | 58 W/m² | - |
| 1787697092 | 22.78° C | 67% | 1010.5 hPa | 0 mm | - | 37 W/m² | - |
| 1787696786 | 22.78° C | 67% | 1010.5 hPa | 0 mm | - | 33 W/m² | - |
| 1787696483 | 22.78° C | 65% | 1010.4 hPa | 0 mm | - | 33 W/m² | - |
| 1787696178 | 23.33° C | 67% | 1010.4 hPa | 0 mm | - | 37 W/m² | - |
| 1787695877 | 23.33° C | 66% | 1010.3 hPa | 0 mm | - | 55 W/m² | - |
| 1787695572 | 23.33° C | 64% | 1010.4 hPa | 0 mm | - | 40 W/m² | - |
| 1787695269 | 23.33° C | 63% | 1010.4 hPa | 0 mm | - | 38 W/m² | - |
| 1787694967 | 23.33° C | 62% | 1010.3 hPa | 0 mm | - | 45 W/m² | - |
| 1787694667 | 23.33° C | 64% | 1010.3 hPa | 0 mm | - | 54 W/m² | - |
* Rain latest hour (hover to see other rain measurements)
** Current wind speed in m/s (hover to see current wind gust speed)